Weather History for Omak, WA

Change the Weather History Date:

Sunday, October 21, 2012

  Actual Average Record
Temperature  
Mean Temperature 37 °F 46 °F  
Max Temperature 50 °F 59 °F 80 °F (1939)
Min Temperature 24 °F 34 °F 15 °F (1945)
Degree Days  
Heating Degree Days 28 18  
Month to date heating degree days 260 290  
Since 1 July heating degree days 326 451  
Cooling Degree Days 0 0  
Month to date cooling degree days 0 0  
Year to date cooling degree days 629 664  
Moisture  
Dew Point 23 °F    
Average Humidity 61    
Maximum Humidity 75    
Minimum Humidity 46    
Precipitation  
Precipitation 0.00 in 0.03 in 0.51 in (1973)
Month to date precipitation 0.06 0.62  
Year to date precipitation 10.83 10.22  
Sea Level Pressure  
Sea Level Pressure 29.89 in    
Wind  
Wind Speed 5 mph (West)    
Max Wind Speed 10 mph    
Max Gust Speed 16 mph    
Visibility 10 miles    
Events      
T = Trace of Precipitation, MM = Missing Value Source: NWS Daily Summary

Daily Weather History Graph

Daily Weather History Graph

Search for Another Location

Airport:

Trip Planner

Search our weather history database for the weather conditions in past years. The results will help you decide how hot, cold, wet, or windy it might be!

Date:

Astronomy

Oct. 21, 2012 Rise Set
Actual Time 7:27 AM PDT 5:56 PM PDT
Civil Twilight 6:55 AM PDT 6:28 PM PDT
Nautical Twilight 6:19 AM PDT 7:04 PM PDT
Astronomical Twilight 5:43 AM PDT 7:40 PM PDT
Moon 2:01 PM PDT 11:49 PM PDT
Length of Visible Light 11h 32m
Length of Day
10h 28m
Waxing Crescent, 46% of the Moon is Illuminated
Oct 21
Waxing Crescent
Oct 21
First Quarter
Oct 29
Full
Nov 6
Last Quarter
Nov 13
New

Hourly Weather History & Observations

Time (PDT) Temp. Windchill Dew Point Humidity Pressure Visibility Wind Dir Wind Speed Gust Speed Precip Events Conditions
1:53 AM 32.0 °F 27.5 °F 16.0 °F 52% 29.84 in 10.0 mi West 4.6 mph - N/A   Clear
2:53 AM 28.9 °F 21.9 °F 16.0 °F 58% 29.85 in 10.0 mi West 6.9 mph - N/A   Clear
3:53 AM 30.0 °F 26.5 °F 17.1 °F 59% 29.86 in 10.0 mi West 3.5 mph - N/A   Clear
4:53 AM 25.0 °F 17.1 °F 16.0 °F 69% 29.88 in 10.0 mi WNW 6.9 mph - N/A   Clear
5:53 AM 26.1 °F 20.5 °F 16.0 °F 66% 29.89 in 10.0 mi WNW 4.6 mph - N/A   Clear
6:53 AM 27.0 °F 21.6 °F 18.0 °F 69% 29.90 in 10.0 mi WNW 4.6 mph - N/A   Overcast
7:53 AM 27.0 °F - 18.0 °F 69% 29.91 in 10.0 mi Calm Calm - N/A   Mostly Cloudy
8:53 AM 32.0 °F 28.7 °F 19.9 °F 61% 29.92 in 10.0 mi SW 3.5 mph - N/A   Mostly Cloudy
9:53 AM 34.0 °F - 21.0 °F 59% 29.93 in 10.0 mi Calm Calm - N/A   Overcast
10:53 AM 39.0 °F - 23.0 °F 53% 29.92 in 10.0 mi Calm Calm - N/A   Scattered Clouds
11:53 AM 39.9 °F - 25.0 °F 55% 29.93 in 10.0 mi Calm Calm - N/A   Scattered Clouds
12:53 PM 43.0 °F - 26.1 °F 51% 29.91 in 10.0 mi Calm Calm - N/A   Mostly Cloudy
1:53 PM 46.9 °F - 28.0 °F 48% 29.89 in 10.0 mi SSW 6.9 mph - N/A   Clear
2:53 PM 48.9 °F - 28.9 °F 46% 29.87 in 10.0 mi SSW 8.1 mph - N/A   Clear
3:53 PM 48.9 °F - 28.9 °F 46% 29.87 in 10.0 mi SSW 6.9 mph - N/A   Clear
4:53 PM 48.9 °F - 28.9 °F 46% 29.87 in 10.0 mi SW 5.8 mph - N/A   Clear
5:53 PM 43.0 °F 40.3 °F 28.0 °F 56% 29.88 in 10.0 mi SW 4.6 mph - N/A   Clear
6:53 PM 33.1 °F 30.0 °F 23.0 °F 66% 29.89 in 10.0 mi West 3.5 mph - N/A   Partly Cloudy
7:53 PM 36.0 °F 29.0 °F 25.0 °F 64% 29.89 in 10.0 mi West 9.2 mph - N/A   Clear
8:53 PM 37.0 °F 34.5 °F 25.0 °F 62% 29.89 in 10.0 mi West 3.5 mph - N/A   Scattered Clouds
9:53 PM 33.1 °F 26.9 °F 24.1 °F 70% 29.90 in 10.0 mi WNW 6.9 mph - N/A   Partly Cloudy
10:53 PM 33.1 °F 26.9 °F 24.1 °F 70% 29.90 in 10.0 mi NW 6.9 mph - N/A   Clear
11:53 PM 36.0 °F 29.6 °F 28.0 °F 73% 29.89 in 10.0 mi North 8.1 mph - N/A   Clear